Duluth Sky Harbor, MN

8:13 PM CDT on March 22, 2017 (GMT -0500)
Sky Harbor

Weather History for KDYT - October, 2012

Change the Weather History Date:

Monday, October 1, 2012

  Actual Average Record
Temperature  
Mean Temperature 57 °F -  
Max Temperature 68 °F 61 °F 83 °F (1976)
Min Temperature 46 °F 41 °F 26 °F (1958)
Degree Days  
Heating Degree Days 8    
Growing Degree Days 7 (Base 50)    
Moisture  
Dew Point 46 °F    
Average Humidity 71    
Maximum Humidity 100    
Minimum Humidity 35    
Precipitation  
Precipitation 0.00 in - - ()
Sea Level Pressure  
Sea Level Pressure 29.89 in    
Wind  
Wind Speed 6 mph (NW)    
Max Wind Speed 14 mph    
Max Gust Speed 17 mph    
Visibility 8 miles    
Events Fog    
Averages and records for this station are not official NWS values.
T = Trace of Precipitation, MM = Missing Value Source: NWS Daily Summary

Daily Weather History Graph

Daily Weather History Graph

Search for Another Location

Airport or City:

Trip Planner

Search our weather history database for the weather conditions in past years. The results will help you decide how hot, cold, wet, or windy it might be!

Date:

Astronomy

Oct. 01, 2012 Rise Set
Actual Time 7:07 AM CDT 6:46 PM CDT
Civil Twilight 6:37 AM CDT 7:17 PM CDT
Nautical Twilight 6:02 AM CDT 7:52 PM CDT
Astronomical Twilight 5:26 AM CDT 8:27 PM CDT
Moon 7:13 PM CDT (10/1) 8:46 AM CDT (10/1)
Length of Visible Light 12h 39m
Length of Day
11h 39m
Full, 98% of the Moon is Illuminated
Oct 1
Full
Oct 8
Last Quarter
Oct 15
New
Oct 21
First Quarter
Oct 29
Full

Hourly Weather History & Observations

Time (CDT) Temp. Windchill Dew Point Humidity Pressure Visibility Wind Dir Wind Speed Gust Speed Precip Events Conditions
12:13 AM 50.0 °F - 46.4 °F 87% 29.88 in 10.0 mi NNE 3.5 mph - N/A   Scattered Clouds
12:33 AM 50.0 °F - 46.4 °F 87% 29.88 in 10.0 mi NNE 3.5 mph - N/A   Mostly Cloudy
12:54 AM 50.0 °F - 48.2 °F 94% 29.87 in 10.0 mi NNE 6.9 mph - N/A   Overcast
1:13 AM 50.0 °F - 48.2 °F 94% 29.87 in 10.0 mi NNE 6.9 mph - N/A   Overcast
1:33 AM 51.8 °F - 48.2 °F 88% 29.87 in 10.0 mi NNE 6.9 mph - N/A   Overcast
1:54 AM 50.0 °F - 48.2 °F 94% 29.87 in 10.0 mi North 9.2 mph - N/A   Overcast
2:33 AM 50.0 °F - 46.4 °F 87% 29.86 in 4.0 mi ENE 4.6 mph - N/A   Overcast
2:54 AM 48.2 °F - 46.4 °F 93% 29.86 in 2.5 mi Calm Calm - N/A   Overcast
3:13 AM 48.2 °F - 46.4 °F 93% 29.85 in 2.5 mi Calm Calm - N/A   Overcast
3:33 AM 48.2 °F - 46.4 °F 93% 29.85 in 1.8 mi Calm Calm - N/A   Overcast
3:54 AM 48.2 °F - 46.4 °F 93% 29.85 in 2.0 mi Calm Calm - N/A   Overcast
4:13 AM 48.2 °F - 46.4 °F 93% 29.85 in 2.5 mi Calm Calm - N/A   Overcast
4:33 AM 48.2 °F - 46.4 °F 93% 29.85 in 4.0 mi Calm Calm - N/A   Overcast
5:14 AM 48.2 °F - 46.4 °F 93% 29.85 in 0.8 mi WSW 3.5 mph - N/A   Overcast
5:33 AM 48.2 °F - 46.4 °F 93% 29.85 in 1.0 mi Calm Calm - N/A   Overcast
5:54 AM 48.2 °F - 46.4 °F 93% 29.85 in 0.5 mi SSW 4.6 mph - N/A Fog Fog
6:14 AM 48.2 °F - 46.4 °F 93% 29.85 in 0.8 mi South 5.8 mph - N/A   Overcast
6:33 AM 46.4 °F 43.5 °F 46.4 °F 100% 29.85 in 2.5 mi SSW 5.8 mph - N/A   Overcast
6:54 AM 46.4 °F 42.9 °F 44.6 °F 93% 29.85 in 1.0 mi SSW 6.9 mph - N/A   Overcast
7:14 AM 46.4 °F 42.9 °F 44.6 °F 93% 29.86 in 7.0 mi SSW 6.9 mph - N/A   Scattered Clouds
7:33 AM 46.4 °F 42.9 °F 44.6 °F 93% 29.87 in 10.0 mi SSW 6.9 mph - N/A   Clear
7:54 AM 46.4 °F 44.3 °F 44.6 °F 93% 29.87 in 10.0 mi SSW 4.6 mph - N/A   Clear
8:14 AM 48.2 °F - 46.4 °F 93% 29.87 in 10.0 mi South 3.5 mph - N/A   Clear
8:33 AM 51.8 °F - 48.2 °F 88% 29.87 in 10.0 mi SSW 4.6 mph - N/A   Clear
8:54 AM 53.6 °F - 48.2 °F 82% 29.87 in 10.0 mi WSW 3.5 mph - N/A   Clear
9:13 AM 55.4 °F - 48.2 °F 77% 29.88 in 10.0 mi West 5.8 mph - N/A   Clear
9:33 AM 57.2 °F - 48.2 °F 72% 29.88 in 10.0 mi West 4.6 mph - N/A   Clear
9:54 AM 59.0 °F - 48.2 °F 67% 29.88 in 10.0 mi West 3.5 mph - N/A   Clear
10:14 AM 60.8 °F - 51.8 °F 72% 29.88 in 10.0 mi WNW 6.9 mph - N/A   Clear
10:33 AM 59.0 °F - 51.8 °F 77% 29.89 in 10.0 mi WNW 9.2 mph - N/A   Clear
10:54 AM 60.8 °F - 50.0 °F 68% 29.89 in 10.0 mi NW 13.8 mph - N/A   Clear
11:13 AM 60.8 °F - 50.0 °F 68% 29.89 in 10.0 mi NW 9.2 mph - N/A   Clear
11:33 AM 60.8 °F - 50.0 °F 68% 29.89 in 10.0 mi WNW 9.2 mph - N/A   Clear
12:13 PM 62.6 °F - 51.8 °F 68% 29.89 in 10.0 mi NW 9.2 mph - N/A   Clear
12:33 PM 62.6 °F - 51.8 °F 68% 29.90 in 10.0 mi NW 13.8 mph - N/A   Clear
12:54 PM 64.4 °F - 51.8 °F 64% 29.89 in 10.0 mi WNW 12.7 mph - N/A   Clear
1:13 PM 64.4 °F - 51.8 °F 64% 29.90 in 10.0 mi NNW 10.4 mph 17.3 mph N/A   Scattered Clouds
1:33 PM 62.6 °F - 51.8 °F 68% 29.89 in 10.0 mi North 8.1 mph - N/A   Mostly Cloudy
1:54 PM 62.6 °F - 51.8 °F 68% 29.89 in 10.0 mi North 6.9 mph - N/A   Scattered Clouds
2:14 PM 64.4 °F - 51.8 °F 64% 29.88 in 10.0 mi NNE 4.6 mph - N/A   Scattered Clouds
2:54 PM 62.6 °F - 50.0 °F 63% 29.88 in 10.0 mi North 4.6 mph - N/A   Scattered Clouds
3:13 PM 64.4 °F - 50.0 °F 59% 29.88 in 10.0 mi NNE 6.9 mph - N/A   Scattered Clouds
3:34 PM 64.4 °F - 48.2 °F 56% 29.88 in 10.0 mi NNW 10.4 mph - N/A   Scattered Clouds
3:53 PM 64.4 °F - 48.2 °F 56% 29.88 in 10.0 mi North 9.2 mph - N/A   Scattered Clouds
4:14 PM 66.2 °F - 46.4 °F 49% 29.88 in 10.0 mi NNW 10.4 mph - N/A   Scattered Clouds
4:34 PM 66.2 °F - 46.4 °F 49% 29.88 in 10.0 mi North 8.1 mph - N/A   Scattered Clouds
5:14 PM 64.4 °F - 46.4 °F 52% 29.89 in 10.0 mi NNW 8.1 mph - N/A   Scattered Clouds
5:34 PM 68.0 °F - 39.2 °F 35% 29.89 in 10.0 mi NNW 12.7 mph - N/A   Clear
5:53 PM 66.2 °F - 41.0 °F 40% 29.90 in 10.0 mi NNW 13.8 mph - N/A   Clear
6:14 PM 64.4 °F - 42.8 °F 45% 29.90 in 10.0 mi NNW 11.5 mph - N/A   Clear
6:34 PM 66.2 °F - 37.4 °F 35% 29.91 in 10.0 mi NNW 10.4 mph - N/A   Clear
6:53 PM 64.4 °F - 39.2 °F 40% 29.91 in 10.0 mi NNW 11.5 mph - N/A   Clear
7:14 PM 62.6 °F - 39.2 °F 42% 29.92 in 10.0 mi NNW 11.5 mph - N/A   Clear
7:33 PM 60.8 °F - 42.8 °F 52% 29.93 in 10.0 mi NNW 10.4 mph - N/A   Clear
7:54 PM 60.8 °F - 42.8 °F 52% 29.94 in 10.0 mi NNW 9.2 mph - N/A   Clear
8:14 PM 60.8 °F - 41.0 °F 48% 29.94 in 10.0 mi NNW 9.2 mph - N/A   Clear
8:33 PM 59.0 °F - 41.0 °F 51% 29.94 in 10.0 mi NNW 6.9 mph - N/A   Clear
8:54 PM 57.2 °F - 42.8 °F 59% 29.94 in 10.0 mi NNW 6.9 mph - N/A   Clear
9:13 PM 59.0 °F - 37.4 °F 45% 29.94 in 10.0 mi NW 6.9 mph - N/A   Clear
9:33 PM 57.2 °F - 41.0 °F 55% 29.94 in 10.0 mi NNW 6.9 mph - N/A   Clear
9:54 PM 57.2 °F - 41.0 °F 55% 29.95 in 10.0 mi NNW 8.1 mph - N/A   Clear
10:13 PM 55.4 °F - 42.8 °F 63% 29.95 in 10.0 mi NNW 8.1 mph - N/A   Clear
10:34 PM 55.4 °F - 44.6 °F 67% 29.95 in 10.0 mi NNW 8.1 mph - N/A   Clear
11:13 PM 55.4 °F - 44.6 °F 67% 29.95 in 10.0 mi NNW 10.4 mph - N/A   Clear
11:34 PM 55.4 °F - 42.8 °F 63% 29.96 in 10.0 mi NNW 10.4 mph - N/A   Clear
11:54 PM 53.6 °F - 42.8 °F 67% 29.95 in 10.0 mi NNW 10.4 mph - N/A   Clear